Location: Peebles
(55.6412°N, 3.1714°W)
Time: 14:13:07
(UTC+01:00)

Okean O Rocket - Pass Details

Date: 26 September 2021
Orbit: 622 x 645 km, 98.2° (Epoch: 17 October)

Event Time Altitude Azimuth Distance (km) Brightness Sun altitude
Rises 19:52:09 0° 187° (S) 2,912 5.0 -8.1°
Reaches altitude 10° 19:54:30 10° 197° (SSW) 2,006 4.3 -8.4°
Maximum altitude 19:58:31 35° 263° (W) 1,018 3.4 -9.0°
Drops below altitude 10° 20:02:32 10° 330° (NNW) 2,011 4.8 -9.5°
Sets 20:04:54 0° 340° (NNW) 2,920 5.5 -9.8°
